This is the latest recevied weather packets stored in our database for station/object VR2OT-10. If no packets are shown the sender has not sent any weather packets the latest 10 day(s).
| Time | Temp. | Humidity | Pressure | Rain* | Wind** | Luminosity | Snow |
|---|---|---|---|---|---|---|---|
| 1778169738 | 23.89° C | 85% | 1012.3 hPa | - | 0.45 m/s, 90° | - | - |
| 1778168838 | 23.89° C | 85% | 1012.3 hPa | - | 1.34 m/s, 90° | - | - |
| 1778167939 | 23.89° C | 85% | 1012.5 hPa | - | 1.34 m/s, 90° | - | - |
| 1778167037 | 23.89° C | 85% | 1012.7 hPa | - | 0.89 m/s, 90° | - | - |
| 1778165238 | 23.89° C | 85% | 1012.6 hPa | - | 1.34 m/s, 135° | - | - |
| 1778164338 | 23.89° C | 85% | 1012.3 hPa | - | 1.79 m/s, 90° | - | - |
| 1778163438 | 23.89° C | 85% | 1012.3 hPa | - | 1.79 m/s, 135° | - | - |
| 1778162539 | 23.89° C | 85% | 1012.3 hPa | - | 1.34 m/s, 135° | - | - |
| 1778161637 | 23.89° C | 85% | 1012.2 hPa | - | 1.79 m/s, 135° | - | - |
| 1778160738 | 23.89° C | 85% | 1011.8 hPa | - | 1.34 m/s, 135° | - | - |
| 1778158937 | 23.89° C | 84% | 1011.5 hPa | - | 1.79 m/s, 135° | - | - |
| 1778158038 | 23.89° C | 84% | 1011.3 hPa | - | 2.24 m/s, 135° | - | - |
| 1778157139 | 23.89° C | 84% | 1011.1 hPa | - | 2.24 m/s, 135° | - | - |
| 1778156238 | 23.89° C | 83% | 1011.2 hPa | - | 2.68 m/s, 135° | - | - |
| 1778155339 | 23.89° C | 83% | 1010.8 hPa | - | 3.13 m/s, 135° | - | - |
| 1778154438 | 23.89° C | 82% | 1010.7 hPa | - | 3.13 m/s, 135° | - | - |
| 1778153538 | 23.89° C | 82% | 1010.6 hPa | - | 3.13 m/s, 135° | - | - |
| 1778152638 | 24.44° C | 82% | 1010.6 hPa | - | 3.58 m/s, 135° | - | - |
| 1778151739 | 24.44° C | 82% | 1010.5 hPa | - | 4.02 m/s, 135° | - | - |
| 1778150838 | 24.44° C | 80% | 1010.3 hPa | - | 4.47 m/s, 135° | - | - |
| 1778149939 | 24.44° C | 79% | 1010.1 hPa | - | 4.02 m/s, 135° | - | - |
| 1778149038 | 24.44° C | 78% | 1010.1 hPa | - | 4.02 m/s, 135° | - | - |
| 1778148137 | 25° C | 76% | 1009.8 hPa | - | 4.47 m/s, 135° | - | - |
| 1778147238 | 25° C | 76% | 1010 hPa | - | 4.02 m/s, 135° | - | - |
| 1778146339 | 25° C | 74% | 1010 hPa | - | 4.47 m/s, 135° | - | - |
* Rain since midnight (hover to see other rain measurements)
** Current wind speed in m/s (hover to see current wind gust speed)